EW4036 Weather Reports


Display with metric or nautical units.
time (UTC)temp
F
wind
direction
speed
MPH
gust
MPH
rain 1hr
in
rain 24hr
in
rain mn
in
humidity
%
barometer
mb
20260905000011 50 86 0.0 0.0 0.00 0.13 0.00 98 995.2
20260904234606 50 65 0.0 0.0 0.00 0.13 0.00 98 995.4
20260904233010 50 65 0.0 0.0 0.00 0.13 0.00 97 995.3
20260904231610 50 60 0.0 0.0 0.00 0.13 0.00 97 995.3
20260904230011 50 185 0.0 0.0 0.00 0.13 0.00 97 995.2
20260904224608 50 153 0.0 0.0 0.00 0.13 0.00 97 995.2
20260904223009 50 153 0.0 0.0 0.00 0.13 0.00 97 995.3
20260904221509 50 154 0.0 0.0 0.00 0.13 0.00 97 995.2
20260904220021 50 355 0.0 0.0 0.00 0.13 0.00 96 995.1
20260904214506 50 355 0.0 0.0 0.00 0.13 0.13 96 995.0
20260904213012 50 355 0.0 0.0 0.00 0.13 0.13 96 995.0
20260904211507 51 355 0.0 1.0 0.00 0.13 0.13 96 995.0
20260904210012 51 355 1.0 3.0 0.00 0.13 0.13 96 994.9
20260904204607 51 301 0.0 2.0 0.00 0.13 0.13 96 995.1
20260904203011 51 288 0.0 0.0 0.00 0.13 0.13 96 995.1
20260904201507 51 288 0.0 2.0 0.00 0.13 0.13 96 995.1
20260904200017 51 304 1.0 2.0 0.00 0.13 0.13 96 995.2
20260904194523 51 248 1.0 2.0 0.00 0.13 0.13 95 995.0
20260904193006 52 360 1.0 4.0 0.00 0.13 0.13 95 995.0
20260904191511 52 311 2.0 4.0 0.00 0.13 0.13 95 995.0
20260904190009 53 299 2.0 3.0 0.00 0.13 0.13 95 995.1
20260904184507 53 296 0.0 0.0 0.00 0.13 0.13 94 995.0
20260904183010 53 285 0.0 0.0 0.00 0.13 0.13 94 995.0
20260904181612 54 267 0.0 0.0 0.00 0.13 0.13 94 995.1
20260904180009 54 301 1.0 3.0 0.00 0.13 0.13 94 995.1
20260904174618 54 307 0.0 4.0 0.00 0.13 0.13 93 995.0
20260904173010 54 284 1.0 4.0 0.00 0.13 0.13 93 995.0
20260904171506 54 302 2.0 5.0 0.00 0.13 0.13 92 995.0
20260904170012 55 271 3.0 7.0 0.00 0.13 0.13 92 995.0
20260904164510 55 272 4.0 7.0 0.00 0.13 0.13 91 995.0
20260904163007 55 300 5.0 10.0 0.00 0.13 0.13 91 994.9
20260904161508 55 317 6.0 10.0 0.00 0.13 0.13 91 995.0
20260904160011 55 317 6.0 10.0 0.00 0.13 0.13 91 995.0
20260904154508 56 315 6.0 12.0 0.00 0.13 0.13 91 995.0
20260904153010 57 297 7.0 12.0 0.00 0.13 0.13 91 994.9
20260904151506 57 257 9.0 13.0 0.00 0.13 0.13 91 994.9
20260904150011 57 278 7.0 14.0 0.00 0.13 0.13 91 995.0
20260904144510 57 268 10.0 15.0 0.00 0.13 0.13 91 994.9
20260904143009 58 254 9.0 15.0 0.00 0.13 0.13 91 994.9
20260904141607 58 264 10.0 19.0 0.00 0.13 0.13 90 994.8
20260904140012 59 232 9.0 16.0 0.00 0.13 0.13 91 994.7
20260904134505 58 223 10.0 21.0 0.00 0.13 0.13 91 994.6
20260904133007 58 236 12.0 21.0 0.00 0.13 0.13 90 994.7
20260904131506 58 211 13.0 19.0 0.00 0.13 0.13 91 994.8
20260904130009 57 221 10.0 18.0 0.00 0.13 0.13 90 995.0
20260904124508 58 213 13.0 17.0 0.00 0.13 0.13 88 995.1
20260904123006 58 217 11.0 20.0 0.00 0.13 0.13 86 995.2
20260904121506 59 215 12.0 18.0 0.00 0.13 0.13 86 995.3
20260904120007 59 213 12.0 18.0 0.00 0.13 0.13 88 995.4
20260904114507 59 213 7.0 15.0 0.00 0.13 0.13 89 995.5
20260904113016 58 204 8.0 16.0 0.00 0.13 0.13 90 995.6
20260904110110 58 198 9.0 14.0 0.00 0.13 0.13 93 995.9
20260904104508 58 214 6.0 14.0 0.00 0.13 0.13 94 996.1
20260904103012 57 227 9.0 15.0 0.00 0.13 0.13 95 996.3
20260904101618 57 234 10.0 16.0 0.00 0.13 0.13 96 996.5
20260904100010 56 227 10.0 15.0 0.00 0.13 0.13 97 996.4
20260904094605 56 204 9.0 13.0 0.00 0.13 0.13 98 996.8
20260904093011 56 217 10.0 17.0 0.01 0.13 0.13 97 996.7
20260904091506 56 220 8.0 12.0 0.02 0.13 0.13 98 996.6
20260904090008 56 214 5.0 14.0 0.04 0.13 0.13 98 996.7
20260904084518 55 207 7.0 10.0 0.06 0.13 0.13 98 996.8
20260904083105 55 186 6.0 9.0 0.06 0.13 0.13 98 996.9
20260904081606 55 195 5.0 9.0 0.06 0.11 0.11 98 997.1
20260904080012 55 200 6.0 12.0 0.06 0.09 0.09 98 997.1
20260904074513 56 186 7.0 10.0 0.05 0.08 0.08 98 997.1
20260904073107 55 153 3.0 7.0 0.03 0.06 0.06 98 997.3
20260904071508 55 85 4.0 7.0 0.02 0.06 0.06 98 997.5
20260904070030 55 111 3.0 7.0 0.01 0.03 0.03 98 997.6
20260904064605 55 68 2.0 5.0 0.01 0.03 0.03 98 997.7
20260904063012 55 90 4.0 7.0 0.02 0.03 0.03 97 997.7
20260904061509 55 78 1.0 5.0 0.02 0.03 0.03 97 997.9
20260904060011 54 90 3.0 6.0 0.02 0.02 0.02 97 998.1
20260904054506 54 76 2.0 7.0 0.02 0.02 0.02 97 998.4
20260904053006 54 71 1.0 3.0 0.01 0.02 0.02 97 998.5
20260904051509 54 113 0.0 4.0 0.00 0.01 0.01 97 998.5
20260904050015 54 68 0.0 2.0 0.00 0.01 0.01 96 998.8
20260904044505 54 107 0.0 0.0 0.00 0.01 0.01 96 998.9
20260904043105 54 111 0.0 0.0 0.01 0.01 0.01 96 998.8
20260904041508 54 90 0.0 0.0 0.01 0.01 0.01 96 998.7
20260904040011 54 103 0.0 0.0 0.01 0.01 0.01 96 999.0
20260904034608 53 136 0.0 0.0 0.01 0.01 0.01 96 999.3
20260904033012 53 103 0.0 0.0 0.00 0.00 0.00 96 999.4
20260904031511 53 103 0.0 0.0 0.00 0.00 0.00 96 999.6
20260904030006 53 103 0.0 2.0 0.00 0.00 0.00 95 999.8
20260904024506 53 107 0.0 0.0 0.00 0.00 0.00 95 999.8
20260904023010 52 107 0.0 0.0 0.00 0.00 0.00 95 1000.0
20260904021605 52 132 0.0 0.0 0.00 0.00 0.00 95 1000.4
20260904020009 52 126 0.0 2.0 0.00 0.00 0.00 95 1000.2
20260904014506 52 126 2.0 3.0 0.00 0.00 0.00 94 1000.2
20260904013009 53 123 1.0 3.0 0.00 0.00 0.00 94 1000.4
20260904011532 52 103 2.0 3.0 0.00 0.00 0.00 94 1000.4
20260904010012 52 157 0.0 3.0 0.00 0.00 0.00 94 1000.7
20260904004506 52 152 0.0 2.0 0.00 0.00 0.00 93 1000.9
20260904003008 53 49 0.0 2.0 0.00 0.00 0.00 93 1001.0
20260904001605 52 180 0.0 1.0 0.00 0.00 0.00 92 1001.3